Devils Lake, ND

8:09 PM CST on February 06, 2016 (GMT -0600)
Devils Lake Municipal

Weather History for KDVL - April, 2013

Change the Weather History Date:

Friday, April 19, 2013

  Actual Average Record
Temperature  
Mean Temperature 22 °F -  
Max Temperature 30 °F 57 °F 88 °F (1987)
Min Temperature 15 °F 33 °F 15 °F (2013)
Degree Days  
Heating Degree Days 42    
Moisture  
Dew Point 17 °F    
Average Humidity 75    
Maximum Humidity 100    
Minimum Humidity 55    
Precipitation  
Precipitation 0.00 in - - ()
Sea Level Pressure  
Sea Level Pressure 29.99 in    
Wind  
Wind Speed 16 mph (North)    
Max Wind Speed 22 mph    
Max Gust Speed 22 mph    
Visibility 10 miles    
Events      
Averages and records for this station are not official NWS values.
T = Trace of Precipitation, MM = Missing Value Source: NWS Daily Summary

Daily Weather History Graph

Daily Weather History Graph

Search for Another Location

Airport or City:

Trip Planner

Search our weather history database for the weather conditions in past years. The results will help you decide how hot, cold, wet, or windy it might be!

Date:

Astronomy

Apr. 19, 2013 Rise Set
Actual Time 6:37 AM CDT 8:32 PM CDT
Civil Twilight 6:04 AM CDT 9:05 PM CDT
Nautical Twilight 5:23 AM CDT 9:46 PM CDT
Astronomical Twilight 4:38 AM CDT 10:32 PM CDT
Moon 1:51 PM CDT (4/19) 3:23 AM CDT (4/19)
Length of Visible Light 15h 01m
Length of Day
13h 54m
First Quarter, 62% of the Moon is Illuminated
Apr 19
First Quarter
Apr 25
Full
May 2
Last Quarter
May 9
New
May 17
First Quarter

Hourly Weather History & Observations

Time (CDT) Temp. Windchill Dew Point Humidity Pressure Visibility Wind Dir Wind Speed Gust Speed Precip Events Conditions
12:15 AM 23.0 °F 9.2 °F 17.6 °F 80% 29.93 in 10.0 mi NW 17.3 mph - N/A   Clear
12:35 AM 23.0 °F 9.2 °F 17.6 °F 80% 29.92 in 10.0 mi NNW 17.3 mph - N/A   Clear
12:55 AM 24.8 °F 11.5 °F 17.6 °F 74% 29.92 in 10.0 mi NNW 17.3 mph - N/A   Clear
1:15 AM 24.8 °F 11.9 °F 17.6 °F 74% 29.92 in 10.0 mi NNW 16.1 mph - N/A   Clear
1:35 AM 24.8 °F 10.7 °F 17.6 °F 74% 29.91 in 10.0 mi NNW 19.6 mph - N/A   Clear
1:55 AM 24.8 °F 11.5 °F 17.6 °F 74% 29.91 in 10.0 mi NNW 17.3 mph - N/A   Clear
2:15 AM 24.8 °F 11.5 °F 17.6 °F 74% 29.90 in 10.0 mi NNW 17.3 mph - N/A   Clear
2:35 AM 24.8 °F 11.5 °F 17.6 °F 74% 29.90 in 10.0 mi NNW 17.3 mph - N/A   Clear
2:55 AM 24.8 °F 11.9 °F 17.6 °F 74% 29.90 in 10.0 mi NNW 16.1 mph - N/A   Clear
3:15 AM 24.8 °F 11.9 °F 17.6 °F 74% 29.90 in 10.0 mi North 16.1 mph - N/A   Clear
3:35 AM 24.8 °F 11.1 °F 17.6 °F 74% 29.89 in 10.0 mi North 18.4 mph - N/A   Clear
3:55 AM 24.8 °F 11.1 °F 17.6 °F 74% 29.89 in 10.0 mi North 18.4 mph - N/A   Clear
4:15 AM 23.0 °F 8.3 °F 17.6 °F 80% 29.89 in 10.0 mi North 19.6 mph - N/A   Clear
4:35 AM 23.0 °F 8.0 °F 15.8 °F 74% 29.89 in 10.0 mi North 20.7 mph - N/A   Clear
4:55 AM 21.2 °F 6.0 °F 15.8 °F 80% 29.89 in 10.0 mi North 19.6 mph - N/A   Clear
5:15 AM 21.2 °F 6.4 °F 15.8 °F 80% 29.90 in 10.0 mi North 18.4 mph - N/A   Clear
5:35 AM 19.4 °F 4.5 °F 15.8 °F 86% 29.91 in 10.0 mi North 17.3 mph - N/A   Clear
5:55 AM 19.4 °F 4.5 °F 15.8 °F 86% 29.91 in 10.0 mi North 17.3 mph - N/A   Clear
6:15 AM 19.4 °F 4.5 °F 15.8 °F 86% 29.92 in 10.0 mi North 17.3 mph - N/A   Clear
6:35 AM 19.4 °F 5.0 °F 14.0 °F 80% 29.92 in 10.0 mi North 16.1 mph - N/A   Clear
6:55 AM 19.4 °F 4.1 °F 14.0 °F 80% 29.93 in 10.0 mi North 18.4 mph - N/A   Clear
7:15 AM 19.4 °F 5.0 °F 12.2 °F 74% 29.93 in 10.0 mi North 16.1 mph - N/A   Clear
7:35 AM 19.4 °F 4.5 °F 15.8 °F 86% 29.94 in 10.0 mi North 17.3 mph - N/A   Clear
7:55 AM 19.4 °F 4.5 °F 14.0 °F 80% 29.95 in 10.0 mi North 17.3 mph - N/A   Clear
8:15 AM 17.6 °F 3.2 °F 12.2 °F 79% 29.95 in 10.0 mi North 15.0 mph - N/A   Clear
8:35 AM 19.4 °F 5.0 °F 14.0 °F 80% 29.96 in 10.0 mi North 16.1 mph - N/A   Clear
8:55 AM 19.4 °F 5.5 °F 15.8 °F 86% 29.96 in 10.0 mi North 15.0 mph - N/A   Clear
9:15 AM 19.4 °F 4.5 °F 15.8 °F 86% 29.96 in 10.0 mi North 17.3 mph - N/A   Clear
9:35 AM 21.2 °F 7.3 °F 15.8 °F 80% 29.96 in 10.0 mi North 16.1 mph - N/A   Clear
9:55 AM 21.2 °F 7.3 °F 15.8 °F 80% 29.97 in 10.0 mi North 16.1 mph - N/A   Clear
10:15 AM 23.0 °F 9.6 °F 17.6 °F 80% 29.97 in 10.0 mi North 16.1 mph - N/A   Clear
10:35 AM 24.8 °F 11.5 °F 15.8 °F 69% 29.98 in 10.0 mi North 17.3 mph - N/A   Clear
10:55 AM 24.8 °F 11.1 °F 17.6 °F 74% 29.98 in 10.0 mi North 18.4 mph 21.9 mph N/A   Clear
11:15 AM 24.8 °F 10.7 °F 17.6 °F 74% 29.99 in 10.0 mi North 19.6 mph - N/A   Clear
11:35 AM 26.6 °F 12.4 °F 17.6 °F 69% 29.99 in 10.0 mi North 21.9 mph - N/A   Clear
11:55 AM 26.6 °F 12.7 °F 19.4 °F 74% 29.99 in 10.0 mi North 20.7 mph - N/A   Clear
12:15 PM 26.6 °F 12.7 °F 17.6 °F 69% 30.00 in 10.0 mi North 20.7 mph - N/A   Clear
12:35 PM 26.6 °F 13.8 °F 17.6 °F 69% 30.00 in 10.0 mi North 17.3 mph - N/A   Clear
12:55 PM 26.6 °F 13.4 °F 19.4 °F 74% 30.00 in 10.0 mi North 18.4 mph - N/A   Clear
1:15 PM 28.4 °F 15.4 °F 17.6 °F 64% 30.00 in 10.0 mi North 19.6 mph - N/A   Clear
1:35 PM 28.4 °F 16.2 °F 19.4 °F 69% 30.01 in 10.0 mi North 17.3 mph - N/A   Clear
1:55 PM 28.4 °F 16.2 °F 19.4 °F 69% 30.01 in 10.0 mi North 17.3 mph - N/A   Clear
2:15 PM 28.4 °F 16.6 °F 17.6 °F 64% 30.01 in 10.0 mi North 16.1 mph - N/A   Clear
2:35 PM 28.4 °F 16.2 °F 17.6 °F 64% 30.01 in 10.0 mi North 17.3 mph - N/A   Clear
2:55 PM 28.4 °F 16.6 °F 17.6 °F 64% 30.02 in 10.0 mi North 16.1 mph - N/A   Clear
3:15 PM 28.4 °F 16.6 °F 19.4 °F 69% 30.02 in 10.0 mi North 16.1 mph - N/A   Clear
3:35 PM 30.2 °F 18.9 °F 19.4 °F 64% 30.02 in 10.0 mi North 16.1 mph - N/A   Clear
3:55 PM 30.2 °F 19.3 °F 17.6 °F 60% 30.02 in 10.0 mi North 15.0 mph - N/A   Clear
4:15 PM 30.2 °F 18.5 °F 17.6 °F 60% 30.02 in 10.0 mi North 17.3 mph - N/A   Clear
4:35 PM 30.2 °F 18.5 °F 15.8 °F 55% 30.03 in 10.0 mi North 17.3 mph - N/A   Clear
4:55 PM 30.2 °F 18.5 °F 15.8 °F 55% 30.03 in 10.0 mi North 17.3 mph - N/A   Clear
5:15 PM 30.2 °F 19.3 °F 17.6 °F 60% 30.03 in 10.0 mi North 15.0 mph - N/A   Clear
5:35 PM 30.2 °F 19.3 °F 19.4 °F 64% 30.04 in 10.0 mi North 15.0 mph - N/A   Clear
5:55 PM 30.2 °F 19.8 °F 19.4 °F 64% 30.04 in 10.0 mi North 13.8 mph - N/A   Clear
6:15 PM 30.2 °F 20.8 °F 19.4 °F 64% 30.04 in 10.0 mi North 11.5 mph - N/A   Clear
6:35 PM 30.2 °F 20.8 °F 19.4 °F 64% 30.04 in 10.0 mi North 11.5 mph - N/A   Clear
6:55 PM 28.4 °F 21.2 °F 19.4 °F 69% 30.05 in 10.0 mi North 6.9 mph - N/A   Clear
7:15 PM 28.4 °F 20.4 °F 19.4 °F 69% 30.05 in 10.0 mi North 8.1 mph - N/A   Clear
7:35 PM 28.4 °F 21.2 °F 21.2 °F 74% 30.05 in 10.0 mi North 6.9 mph - N/A   Clear
7:55 PM 26.6 °F 19.1 °F 21.2 °F 80% 30.05 in 10.0 mi North 6.9 mph - N/A   Clear
8:15 PM 26.6 °F 20.0 °F 19.4 °F 74% 30.05 in 10.0 mi North 5.8 mph - N/A   Clear
8:35 PM 24.8 °F 19.1 °F 17.6 °F 74% 30.06 in 10.0 mi North 4.6 mph - N/A   Clear
8:55 PM 24.8 °F 20.5 °F 19.4 °F 80% 30.06 in 10.0 mi NNW 3.5 mph - N/A   Clear
9:15 PM 24.8 °F 20.5 °F 21.2 °F 86% 30.07 in 10.0 mi NNW 3.5 mph - N/A   Clear
9:35 PM 21.2 °F 16.4 °F 19.4 °F 93% 30.07 in 10.0 mi NNW 3.5 mph - N/A   Clear
9:55 PM 24.8 °F 17.9 °F 19.4 °F 80% 30.07 in 10.0 mi North 5.8 mph - N/A   Clear
10:15 PM 19.4 °F - 15.8 °F 86% 30.07 in 10.0 mi Calm Calm - N/A   Clear
10:35 PM 19.4 °F 14.3 °F 19.4 °F 100% 30.07 in 10.0 mi West 3.5 mph - N/A   Clear
10:55 PM 21.2 °F - 17.6 °F 86% 30.07 in 10.0 mi Calm Calm - N/A   Clear
11:15 PM 17.6 °F - 12.2 °F 79% 30.07 in 10.0 mi Calm Calm - N/A   Clear
11:35 PM 15.8 °F - 12.2 °F 86% 30.07 in 10.0 mi Calm Calm - N/A   Clear
11:55 PM 19.4 °F - 15.8 °F 86% 30.07 in 10.0 mi Calm Calm - N/A   Clear